Location: Mound City (historical)
(34.0564°N, 117.2656°W)
Time: 03:14:27
(UTC+00:00)

Cosmos 1190 Rocket - Pass Details

Date: 08 September 2024
Orbit: 753 x 777 km, 74.1° (Epoch: 10 October)

Event Time Altitude Azimuth Distance (km) Brightness Sun altitude
Exits shadow 12:16:01 21° 227° (SW) 1,644 5.2 -15.4°
Maximum altitude 12:19:08 45° 290° (WNW) 1,016 4.3 -14.7°
Drops below altitude 10° 12:24:05 10° 4° (N) 2,282 6.7 -13.8°
Sets 12:26:34 0° 10° (N) 3,211 7.6 -13.3°
